| time (UTC) | temp F | wind direction | speed MPH | gust MPH | rain 1hr in | rain 24hr in | rain mn in | humidity % | barometer mb |
| 20260506023026 | 67 | 47 | 5.0 | 9.0 | 0.00 | 0.05 | 0.05 | 80 | 1026.5 |
| 20260506022524 | 67 | 79 | 4.0 | 9.0 | 0.00 | 0.05 | 0.05 | 80 | 1026.5 |
| 20260506014520 | 68 | 47 | 4.0 | 10.0 | 0.00 | 0.05 | 0.05 | 79 | 1026.8 |
| 20260506014034 | 68 | 56 | 4.0 | 12.0 | 0.00 | 0.05 | 0.05 | 79 | 1026.7 |
| 20260506014013 | 68 | 32 | 4.0 | 12.0 | 0.00 | 0.05 | 0.05 | 80 | 1026.7 |
| 20260506012022 | 68 | 45 | 5.0 | 11.0 | 0.01 | 0.05 | 0.05 | 80 | 1026.9 |
| 20260506011522 | 68 | 64 | 5.0 | 12.0 | 0.01 | 0.05 | 0.05 | 81 | 1026.8 |
| 20260506011019 | 68 | 54 | 6.0 | 12.0 | 0.01 | 0.05 | 0.05 | 82 | 1026.8 |
| 20260506010520 | 68 | 56 | 3.0 | 10.0 | 0.01 | 0.05 | 0.05 | 83 | 1026.9 |
| 20260506010020 | 67 | 100 | 5.0 | 12.0 | 0.01 | 0.05 | 0.05 | 83 | 1027.0 |
| 20260506005520 | 67 | 75 | 6.0 | 12.0 | 0.01 | 0.05 | 0.05 | 84 | 1027.0 |
| 20260506005020 | 68 | 41 | 4.0 | 9.0 | 0.01 | 0.05 | 0.05 | 87 | 1027.0 |
| 20260506004533 | 67 | 355 | 3.0 | 7.0 | 0.02 | 0.05 | 0.05 | 88 | 1027.0 |
| 20260506003008 | 67 | 67 | 2.0 | 10.0 | 0.01 | 0.04 | 0.04 | 86 | 1027.2 |
| 20260506002031 | 67 | 64 | 4.0 | 7.0 | 0.01 | 0.04 | 0.04 | 86 | 1027.5 |
| 20260506001516 | 66 | 132 | 2.0 | 9.0 | 0.01 | 0.04 | 0.04 | 87 | 1027.6 |
| 20260506001017 | 66 | 92 | 3.0 | 9.0 | 0.01 | 0.04 | 0.04 | 87 | 1027.6 |
| 20260506000529 | 66 | 360 | 4.0 | 8.0 | 0.01 | 0.04 | 0.04 | 87 | 1027.8 |
| 20260506000017 | 65 | 70 | 3.0 | 5.0 | 0.01 | 0.04 | 0.04 | 88 | 1027.8 |
| 20260505235515 | 65 | 47 | 1.0 | 7.0 | 0.01 | 0.04 | 0.04 | 86 | 1028.0 |
| 20260505235015 | 65 | 65 | 3.0 | 7.0 | 0.00 | 0.03 | 0.03 | 85 | 1028.0 |
| 20260505234515 | 66 | 324 | 2.0 | 8.0 | 0.00 | 0.03 | 0.03 | 83 | 1028.1 |
| 20260505233515 | 67 | 67 | 3.0 | 8.0 | 0.00 | 0.03 | 0.03 | 83 | 1028.0 |
| 20260505233022 | 67 | 83 | 4.0 | 9.0 | 0.00 | 0.03 | 0.03 | 83 | 1028.0 |
| 20260505230020 | 68 | 107 | 4.0 | 9.0 | 0.00 | 0.03 | 0.03 | 82 | 1028.2 |
| 20260505222517 | 67 | 116 | 4.0 | 7.0 | 0.01 | 0.03 | 0.03 | 83 | 1028.6 |
| 20260505222018 | 67 | 80 | 2.0 | 8.0 | 0.01 | 0.03 | 0.03 | 85 | 1028.5 |
| 20260505221518 | 67 | 83 | 4.0 | 8.0 | 0.01 | 0.03 | 0.03 | 86 | 1028.6 |
| 20260505221015 | 66 | 49 | 4.0 | 7.0 | 0.01 | 0.03 | 0.03 | 87 | 1028.7 |
| 20260505220516 | 65 | 103 | 2.0 | 8.0 | 0.01 | 0.03 | 0.03 | 86 | 1028.7 |
| 20260505220017 | 66 | 94 | 4.0 | 7.0 | 0.01 | 0.03 | 0.03 | 86 | 1028.8 |
| 20260505215516 | 66 | 78 | 4.0 | 8.0 | 0.01 | 0.03 | 0.03 | 85 | 1028.9 |
| 20260505215016 | 66 | 75 | 2.0 | 7.0 | 0.01 | 0.03 | 0.03 | 84 | 1028.9 |
| 20260505214529 | 67 | 78 | 3.0 | 8.0 | 0.01 | 0.03 | 0.03 | 84 | 1028.9 |
| 20260505214017 | 67 | 99 | 3.0 | 8.0 | 0.00 | 0.02 | 0.02 | 83 | 1028.9 |
| 20260505213529 | 68 | 64 | 3.0 | 4.0 | 0.00 | 0.02 | 0.02 | 85 | 1028.9 |
| 20260505213016 | 68 | 111 | 1.0 | 6.0 | 0.00 | 0.02 | 0.02 | 86 | 1028.9 |
| 20260505212517 | 67 | 57 | 2.0 | 7.0 | 0.00 | 0.02 | 0.02 | 86 | 1028.9 |
| 20260505212018 | 67 | 80 | 2.0 | 6.0 | 0.00 | 0.02 | 0.02 | 87 | 1028.9 |
| 20260505204021 | 65 | 164 | 0.0 | 1.0 | 0.00 | 0.02 | 0.02 | 92 | 1028.9 |
| 20260505192518 | 62 | 182 | 0.0 | 0.0 | 0.00 | 0.02 | 0.02 | 93 | 1028.6 |
| 20260505095552 | 60 | 131 | 0.0 | 1.0 | 0.00 | 0.00 | 0.00 | 88 | 1030.4 |
| 20260505093034 | 60 | 133 | 0.0 | 0.0 | 0.00 | 0.00 | 0.00 | 88 | 1030.4 |
| 20260505054015 | 63 | 109 | 3.0 | 8.0 | 0.00 | 0.00 | 0.00 | 83 | 1029.8 |
| 20260505054008 | 63 | 88 | 3.0 | 8.0 | 0.00 | 0.00 | 0.00 | 83 | 1029.8 |
| 20260505053546 | 63 | 60 | 4.0 | 9.0 | 0.00 | 0.00 | 0.00 | 83 | 1029.7 |
| 20260505052516 | 63 | 103 | 6.0 | 10.0 | 0.00 | 0.00 | 0.00 | 83 | 1029.7 |
| 20260505052015 | 63 | 99 | 7.0 | 10.0 | 0.00 | 0.00 | 0.00 | 83 | 1029.7 |
| 20260505040522 | 65 | 98 | 8.0 | 13.0 | 0.00 | 0.00 | 0.00 | 80 | 1029.9 |
| 20260505035018 | 65 | 90 | 8.0 | 15.0 | 0.00 | 0.00 | 0.00 | 80 | 1029.9 |
| 20260505035008 | 65 | 68 | 8.0 | 15.0 | 0.00 | 0.00 | 0.00 | 80 | 1029.9 |
| 20260505033017 | 65 | 99 | 10.0 | 15.0 | 0.00 | 0.00 | 0.00 | 79 | 1029.8 |
| 20260505032518 | 65 | 106 | 7.0 | 14.0 | 0.00 | 0.00 | 0.00 | 79 | 1029.8 |
| 20260505032017 | 65 | 78 | 7.0 | 15.0 | 0.00 | 0.00 | 0.00 | 78 | 1029.9 |
| 20260505031519 | 65 | 70 | 7.0 | 15.0 | 0.00 | 0.00 | 0.00 | 78 | 1029.9 |
| 20260505031016 | 65 | 47 | 8.0 | 14.0 | 0.00 | 0.00 | 0.00 | 78 | 1029.9 |
| 20260505030517 | 65 | 104 | 8.0 | 14.0 | 0.00 | 0.00 | 0.00 | 78 | 1029.9 |
| 20260505030037 | 66 | 114 | 8.0 | 14.0 | 0.00 | 0.00 | 0.00 | 78 | 1029.9 |
| 20260505025531 | 66 | 70 | 7.0 | 14.0 | 0.00 | 0.00 | 0.00 | 78 | 1029.9 |
| 20260505025512 | 66 | 73 | 7.0 | 14.0 | 0.00 | 0.00 | 0.00 | 77 | 1029.9 |
| 20260505024034 | 66 | 71 | 7.0 | 15.0 | 0.00 | 0.00 | 0.00 | 77 | 1029.9 |